Starlink 2046

operational
NORAD ID: 47354 Int'l Des: 2021-005 Owner: SPXS Country: US Constellation: starlink
LEOCIRCULAR

About Starlink 2046

Description loading...

Live Position

Loading 3D Globe...

Upcoming Passes

Altitude History

Altitude vs Time

uPlot chart will show altitude changes over time

Two-Line Element Set

1 47354U 21005F 26101.74296264 .00003465 00000-0 12904-3 0 9998
2 47354 53.1583 230.4313 0000971 83.3778 276.7333 15.30202747288638
Epoch: Apr 11, 2026 • Age: 13 hours

Current Status

Altitude 480.3 km
Velocity 7.63 km/s
Sub-Earth Point 49.49°N, 44.05°E
Launch Date Jan 20, 2021
Age 5.2 years
Type internet

Technical Details

Classification Payload
Mass 260.00 kg
Dry Mass 248.00 kg
Total Mass 260.00 kg
Length 0.20 m
Diameter 2.80 m
Span 9.00 m
Shape Box + pan
Manufacturer SPXS
Bus Type Starlink
Phase Status In Orbit
Owner/State SPXS/US

Large Constellations

Loading constellations...